Location: Branche des Alpilles
(43.6087°N, 4.6976°E)
Time: 04:47:23
(UTC+00:00)

USA 267 - Pass Details

Date: 30 November 2020
Orbit: 1100 x 1107 km, 123.0° (Epoch: 18 January)

Event Time Altitude Azimuth Distance (km) Brightness Sun altitude
Exits shadow 16:31:01 - 70° (ENE) 3,387 5.1 -4.9°
Reaches altitude 10° 16:32:18 10° 65° (ENE) 2,963 4.8 -5.1°
Maximum altitude 16:37:43 29° 9° (N) 1,909 4.3 -5.9°
Drops below altitude 10° 16:43:08 10° 313° (NW) 2,969 5.9 -6.8°
Sets 16:45:57 0° 302° (WNW) 3,929 6.7 -7.3°
